Tracking 29892 objects as of 21-Nov-2024
HD Live streaming from Space Station
objects crossing your sky now

STARLINK-3111

Track STARLINK-3111 now!
10-day predictions
STARLINK-3111 is classified as:


NORAD ID: 49418
Int'l Code: 2021-104L
Perigee: 546.2 km
Apogee: 547.6 km
Inclination: 53.2 °
Period: 95.4 minutes
Semi major axis: 6917 km
RCS: Unknown
Launch date: November 13, 2021
Source: United States (US)
Launch site: AIR FORCE EASTERN TEST RANGE (AFETR)
Your satellite tracking list
Your tracking list is empty




NASA's NSSDC Master Catalog

Two Line Element Set (TLE):
1 49418U 21104L   24325.09445603  .00000694  00000-0  61669-4 0  9992
2 49418  53.2162 199.6632 0001044  83.7380 276.3731 15.08839827166970
Source of the keplerian elements: AFSPC